DECAYED

STARLINK-30228, 57502 (Decayed)

Orbit data source: Space-Track

STARLINK-30228, 57502 was a payload satellite owned by SpaceX/Seattle (US) in LEO that was launched on Mon, 07 Aug 2023 UTC via an FALCON 9 launch vehicle from the Air Force Eastern Test Range (AFETR). Payload-class satellites include a variety of spacecraft equipped with specific instruments for various scientific and technological missions. These include communications satellites like Starlink; space stations such as the ISS; scientific satellites like the Hubble; Earth observation satellites from companies like Planet Labs, Umbra, and HawkEye 360; GPS; miniature CubeSats for education and research; and military/defense satellites.

Not visible in the next 10 days
Identifier
57502, 2023-113H
Orbit
Decayed
Country
Flag of USUS
Related business
Manufacturer
SpaceX/Seattle
Mission
Decayed Commercial Communications
Bus & Motor
STARLINK V2M, Unknown motor
Mass
730 kg wet, ~700 kg dry
Launch date (UTC)
2023-08-07 (3 years ago)
Launch vehicle
FALCON 9
Launch site
Air Force Eastern Test Range (AFETR)
Object type
Payload
Rocket body
Debris
Shape & HBR
Box + 2 Pan, 17.7 m
Radar Cross Section
33.884 m², Large (>1 m²)

Expand to show TLE details & history
Last TLE update: 5 months ago

TLE from 5 months ago
0 STARLINK-30228
1 57502U 23113H   26028.66442417  .01619915  18814-2  16503-2 0  9994
2 57502  42.9664 141.2887 0021649   1.3416 358.7520 16.09843406138610
Epoch: 2026-01-28T15:56Z
TLE epoch observation values (Epoch: 2026-01-28T15:56:46.248Z)
Latitude
-0.00002°
Longitude
134.16776°
Altitude
232.699 km
Speed
7.777 km/s
True Right ascension
09h 25m 09s
True Declination
0° 00' 00"
Sunlit
Object was in full shadow at epoch
Visualization orbit readout
Latitude
Unknown
Longitude
Unknown
Altitude
Unknown
Speed
Unknown
Apparent Right ascension
Unknown
Apparent Declination
Unknown
Sunlit
N/A
Visualization observer readout
Local Sidereal Time
23:09:17
Azimuth
Unknown
Elevation
Unknown
Doppler factor
Unknown
Orbital elements
Apogee altitude
263.641 km
Perigee altitude
234.945 km
Semi-major axis
6,627.43 km
Eccentricity
0.00216
Inclination
42.9664°
RAAN
141.2887°
Arg. of periapsis
1.3416°
True anomaly
358.74658°
Mean anomaly
358.752°
Eccentric anomaly
358.74929°
Mean motion
4.02277 °/min
Orbital period
89.49 mins
BSTAR
0.0016503
Loading maneuver chart data...
Computing Atmospheric mass density...
Loading historical data...
Loading historical data...
Loading historical data...
Loading historical data...
Loading historical data...
Loading historical data...
Loading historical data...

Documentation

Showing up to 5 results
|